Weather in Wonju

South Korea     37°20′08″N   127°56′57″E
temp.,
°C
wind,
m/s
gust,
m/s
humid.,
%
clouds,
%
prec.,
mm/h
press.,
hPa
HPBL,
m
13 april, tue
tue1300:00+9s1398100 6.2 1009150
03:00+10ssw2999100 8.7 1008735
06:00+9wsw2998100 1.7 1009887
09:00+9w3897100 2.1 1011639
12:00+12w7126843 0.3 10111474
15:00+12w710443 0.3 10101458
18:00+9wnw58430 0.0 10131280
21:00+4w26592 0.0 1016203
14 april, wed
wed1400:00+2w226560 0.0 101845
03:00+1wnw11650 0.0 101820
06:000wsw00650 0.0 101910
09:00+6wsw22430 0.0 1020631
12:00+10w49270 0.0 10191627
15:00+11w712260 0.0 10171714
18:00+8w48460 0.0 10181094
21:00+4sw11710 0.0 102117
15 april, thu
thu1500:00+3s118062 0.0 102111
03:00+2sw11835 0.0 102110
06:00+1e008691 0.0 102110
09:00+7s1154100 0.0 1020431
12:00+12w2235100 0.0 1019984
15:00+14wsw2229100 0.0 10161205
18:00+12wsw24390 0.0 1016199
21:00+8se11485 0.0 101712
16 april, fri
fri1600:00+6sse2256100 0.0 101626
03:00+5sse2263100 0.0 101534
06:00+6sw21163100 0.1 1014899
09:00+6ssw31286100 1.5 10131028
12:00+9sw612684 0.5 10131539
15:00+12wsw711270 0.5 10131645
18:00+9wsw58340 0.0 10141046
21:00+4s11420 0.0 101614
17 april, sat
sat1700:00+3wsw114564 0.0 101610
03:00+3sse11584 0.1 101513
06:00+2s11670 0.1 101614
09:00+9sw25570 0.1 1015712
12:00+12wnw611313 0.0 10132797
15:00+11w813385 0.0 10132896
18:00+8w713430 0.0 10141925
21:00+5w511585 0.0 1017923